Ithaca, NY

6:39 PM EST on February 09, 2016 (GMT -0500)
Tompkins County

Weather History for KITH - June, 2014

Change the Weather History Date:

Sunday, June 15, 2014

  Actual Average Record
Temperature  
Mean Temperature 61 °F -  
Max Temperature 72 °F 76 °F 93 °F (1956)
Min Temperature 52 °F 53 °F 36 °F (1978)
Degree Days  
Heating Degree Days 4    
Growing Degree Days 11 (Base 50)    
Moisture  
Dew Point 52 °F    
Average Humidity 79    
Maximum Humidity 100    
Minimum Humidity 51    
Precipitation  
Precipitation 0.00 in - - ()
Sea Level Pressure  
Sea Level Pressure 30.18 in    
Wind  
Wind Speed 6 mph (NNW)    
Max Wind Speed 9 mph    
Max Gust Speed -    
Visibility 10 miles    
Events      
Averages and records for this station are not official NWS values.
T = Trace of Precipitation, MM = Missing Value Source: NWS Daily Summary

Daily Weather History Graph

Daily Weather History Graph

Search for Another Location

Airport or City:

Trip Planner

Search our weather history database for the weather conditions in past years. The results will help you decide how hot, cold, wet, or windy it might be!

Date:

Astronomy

Jun. 15, 2014 Rise Set
Actual Time 5:27 AM EDT 8:44 PM EDT
Civil Twilight 4:53 AM EDT 9:19 PM EDT
Nautical Twilight 4:08 AM EDT 10:04 PM EDT
Astronomical Twilight 3:13 AM EDT 11:00 PM EDT
Moon 10:49 PM EDT (6/15) 8:21 AM EDT (6/15)
Length of Visible Light 16h 26m
Length of Day
15h 16m
Waning Gibbous, 91% of the Moon is Illuminated
Jun 15
Waning Gibbous
Jun 19
Last Quarter
Jun 27
New
Jul 5
First Quarter
Jul 12
Full

Hourly Weather History & Observations

Time (EDT) Temp. Dew Point Humidity Pressure Visibility Wind Dir Wind Speed Gust Speed Precip Events Conditions
12:56 AM 55.9 °F 52.9 °F 89% 30.13 in 10.0 mi WNW 5.8 mph - N/A   Overcast
1:56 AM 54.9 °F 50.9 °F 86% 30.14 in 10.0 mi NNW 6.9 mph - N/A   Overcast
2:56 AM 54.9 °F 52.0 °F 90% 30.15 in 10.0 mi NW 6.9 mph - N/A   Overcast
3:48 AM 55.4 °F 51.8 °F 88% 30.16 in 10.0 mi NNW 6.9 mph - N/A   Overcast
3:56 AM 54.9 °F 50.9 °F 86% 30.16 in 10.0 mi NNW 6.9 mph - N/A   Overcast
4:17 AM 55.4 °F 51.8 °F 88% 30.16 in 10.0 mi NNW 4.6 mph - N/A   Overcast
4:35 AM 55.4 °F 51.8 °F 88% 30.16 in 10.0 mi NNW 5.8 mph - N/A   Overcast
4:56 AM 54.9 °F 50.9 °F 86% 30.17 in 10.0 mi NNW 5.8 mph - N/A   Overcast
5:56 AM 52.9 °F 50.9 °F 93% 30.18 in 10.0 mi NNW 4.6 mph - N/A   Mostly Cloudy
6:25 AM 53.6 °F 51.8 °F 94% 30.19 in 10.0 mi NW 5.8 mph - N/A   Clear
6:56 AM 54.9 °F 50.9 °F 86% 30.20 in 10.0 mi NNW 5.8 mph - N/A   Scattered Clouds
7:08 AM 55.4 °F 51.8 °F 88% 30.20 in 10.0 mi NNW 5.8 mph - N/A   Scattered Clouds
7:18 AM 55.4 °F 51.8 °F 88% 30.20 in 10.0 mi NW 5.8 mph - N/A   Mostly Cloudy
7:56 AM 54.9 °F 52.0 °F 90% 30.23 in 10.0 mi NNW 8.1 mph - N/A   Overcast
8:56 AM 56.8 °F 52.0 °F 84% 30.23 in 10.0 mi WNW 4.6 mph - N/A   Mostly Cloudy
9:56 AM 59.9 °F 52.0 °F 75% 30.22 in 10.0 mi WNW 6.9 mph - N/A   Mostly Cloudy
10:56 AM 61.0 °F 48.9 °F 64% 30.21 in 10.0 mi Calm Calm - N/A   Mostly Cloudy
11:03 AM 62.6 °F 51.8 °F 68% 30.20 in 10.0 mi NW 8.1 mph - N/A   Mostly Cloudy
11:28 AM 62.6 °F 51.8 °F 68% 30.20 in 10.0 mi North 5.8 mph - N/A   Mostly Cloudy
11:56 AM 63.9 °F 52.0 °F 65% 30.21 in 10.0 mi North 6.9 mph - N/A   Mostly Cloudy
12:56 PM 64.9 °F 52.9 °F 65% 30.20 in 10.0 mi NW 9.2 mph - N/A   Scattered Clouds
1:56 PM 66.9 °F 54.9 °F 65% 30.19 in 10.0 mi NNW 8.1 mph - N/A   Partly Cloudy
2:56 PM 68.0 °F 54.9 °F 63% 30.17 in 10.0 mi NW 8.1 mph - N/A   Partly Cloudy
3:56 PM 68.9 °F 54.9 °F 61% 30.17 in 10.0 mi NW 6.9 mph - N/A   Clear
4:56 PM 68.9 °F 54.0 °F 59% 30.16 in 10.0 mi WNW 4.6 mph - N/A   Clear
5:56 PM 70.9 °F 54.0 °F 55% 30.16 in 10.0 mi Calm Calm - N/A   Clear
6:56 PM 70.0 °F 50.9 °F 51% 30.14 in 10.0 mi NW 4.6 mph - N/A   Clear
7:56 PM 66.9 °F 55.9 °F 68% 30.15 in 10.0 mi Calm Calm - N/A   Clear
8:56 PM 57.9 °F 55.9 °F 93% 30.14 in 10.0 mi Calm Calm - N/A   Clear
9:56 PM 54.9 °F 54.0 °F 97% 30.15 in 10.0 mi Calm Calm - N/A   Clear
10:56 PM 52.9 °F 52.9 °F 100% 30.15 in 9.0 mi Calm Calm - N/A   Clear
11:56 PM 54.0 °F 52.9 °F 96% 30.15 in 10.0 mi East 4.6 mph - N/A   Clear